Flag for USA

Past Weather in Oroville, Washington, USA — Yesterday and Last 2 Weeks

Now
72 °F

Mild.


Feels Like: 77 °F
Forecast: 80 / 52 °F
Wind: 1 mph from South

Location: Osoyoos
Current Time: Sep 18, 2020 at 2:33:25 pm
Latest Report: Sep 18, 2020 at 2:00 pm
Visibility: N/A
Pressure29.80 "Hg
Humidity: 52%
Dew Point: 53 °F
Location of OrovilleLocation

Past Weather in Oroville — Graph

°F

Oroville Temperature Yesterday

Maximum temperature yesterday: 76 °F (at 3:00 pm)
Minimum temperature yesterday: 52 °F (at 7:00 am)
Average temperature yesterday: 64 °F

High & Low Weather Summary for the Past Weeks

 TemperatureHumidityPressure
High94 °F (Sep 5, 4:00 pm)95% (Sep 11, 8:00 am)30.51 "Hg (Sep 11, 8:00 am)
Low47 °F (Sep 9, 6:00 am)12% (Sep 7, 5:00 pm)29.81 "Hg (Sep 13, 6:00 pm)
Average68 °F54%30.04 "Hg
* Reported Sep 3 1:00 pm — Sep 18 1:00 pm, Oroville. Weather by CustomWeather, © 2020

Note: Actual official high and low records may vary slightly from our data, if they occured in-between our weather recording intervals... More about our weather records

Oroville Weather History for the Previous 24 Hours

Scroll right to see more
 ConditionsComfort  
Time TempWeatherWind HumidityBarometerVisibility
1:00 pm
Fri, Sep 18
70 °FMild.No wind52%29.82 "HgN/A
12:00 pm68 °FMild.1 mph54%29.82 "HgN/A
11:00 am64 °FMild.1 mph66%29.84 "HgN/A
10:00 am61 °FCool.2 mph74%29.85 "HgN/A
9:00 am58 °FCool.No wind88%29.87 "HgN/A
8:00 am53 °FCool.2 mph87%29.87 "HgN/A
7:00 am51 °FCool.1 mph93%29.87 "HgN/A
6:00 am51 °FCool.No wind92%29.86 "HgN/A
5:00 am52 °FCool.No wind94%29.87 "HgN/A
4:00 am53 °FCool.No wind94%29.87 "HgN/A
3:00 am53 °FCool.1 mph94%29.88 "HgN/A
2:00 am54 °FCool.1 mph91%29.88 "HgN/A
1:00 am55 °FCool.No wind92%29.88 "HgN/A
12:00 am54 °FCool.No wind91%29.88 "HgN/A
11:00 pm
Thu, Sep 17
57 °FCool.No wind83%29.89 "HgN/A
10:00 pm62 °FCool.2 mph71%29.89 "HgN/A
9:00 pm61 °FCool.No wind76%29.89 "HgN/A
8:00 pm68 °FMild.3 mph62%29.88 "HgN/A
7:00 pm72 °FMild.3 mph57%29.88 "HgN/A
6:00 pm75 °FMild.5 mph52%29.88 "HgN/A
5:00 pm74 °FMild.2 mph58%29.89 "HgN/A
4:00 pm76 °FMild.3 mph51%29.91 "HgN/A
3:00 pm76 °FMild.3 mph52%29.93 "HgN/A
2:00 pm75 °FMild.3 mph55%29.96 "HgN/A
Weather by CustomWeather, © 2020

See weather overview